KC7NGC-B Weather Reports


Display with metric or nautical units.
time (UTC)temp
F
wind
direction
speed
MPH
gust
MPH
rain 1hr
in
rain 24hr
in
rain mn
in
humidity
%
barometer
mb
20260505022622 84 41 2.0 2.0 0.00 0.00 0.00 20 1006.9
20260505021622 85 146 1.0 1.0 0.00 0.00 0.00 19 1006.8
20260505020625 85 53 2.0 3.0 0.00 0.00 0.00 19 1007.1
20260505015636 85 134 1.0 2.0 0.00 0.00 0.00 19 1007.2
20260505014636 85 20 3.0 4.0 0.00 0.00 0.00 20 1007.2
20260505013636 86 7 1.0 2.0 0.00 0.00 0.00 18 1007.3
20260505012630 86 78 3.0 5.0 0.00 0.00 0.00 20 1007.4
20260505011628 86 25 4.0 6.0 0.00 0.00 0.00 20 1007.5
20260505010629 86 3 6.0 7.0 0.00 0.00 0.00 20 1007.4
20260505005647 86 30 4.0 5.0 0.00 0.00 0.00 20 1007.4
20260505004626 86 42 2.0 4.0 0.00 0.00 0.00 19 1007.7
20260505003624 86 16 7.0 9.0 0.00 0.00 0.00 19 1007.6
20260505002635 86 40 5.0 9.0 0.00 0.00 0.00 20 1007.7
20260505001638 86 52 9.0 15.0 0.00 0.00 0.00 20 1007.4
20260505000632 86 18 3.0 4.0 0.00 0.00 0.00 21 1007.5
20260504235630 85 105 2.0 4.0 0.00 0.00 0.00 20 1007.5
20260504234626 85 176 2.0 3.0 0.00 0.00 0.00 20 1007.7
20260504233629 84 58 2.0 5.0 0.00 0.00 0.00 23 1007.7
20260504232625 84 156 3.0 5.0 0.00 0.00 0.00 21 1007.6
20260504231627 84 138 2.0 3.0 0.00 0.00 0.00 22 1007.9
20260504230625 85 185 4.0 5.0 0.00 0.00 0.00 22 1008.0
20260504225636 85 131 1.0 2.0 0.00 0.00 0.00 22 1008.0
20260504224637 84 63 2.0 4.0 0.00 0.00 0.00 22 1008.1
20260504223634 85 134 3.0 5.0 0.00 0.00 0.00 23 1008.2
20260504222628 84 329 1.0 2.0 0.00 0.00 0.00 22 1008.3
20260504221652 85 71 6.0 11.0 0.00 0.00 0.00 22 1008.5
20260504220625 83 130 2.0 3.0 0.00 0.00 0.00 24 1008.5
20260504215650 84 145 3.0 5.0 0.00 0.00 0.00 22 1008.6
20260504214623 83 194 2.0 3.0 0.00 0.00 0.00 22 1008.8
20260504213618 85 342 10.0 14.0 0.00 0.00 0.00 21 1009.0
20260504212657 83 134 1.0 3.0 0.00 0.00 0.00 22 1009.0
20260504211636 83 136 2.0 3.0 0.00 0.00 0.00 22 1009.0
20260504210658 84 10 8.0 12.0 0.00 0.00 0.00 22 1009.2
20260504205631 83 26 1.0 2.0 0.00 0.00 0.00 24 1009.6
20260504204631 83 359 3.0 5.0 0.00 0.00 0.00 23 1009.7
20260504203625 83 352 5.0 9.0 0.00 0.00 0.00 24 1009.8
20260504202626 83 313 7.0 11.0 0.00 0.00 0.00 22 1009.8
20260504201642 83 319 7.0 13.0 0.00 0.00 0.00 22 1009.9
20260504200622 83 354 10.0 13.0 0.00 0.00 0.00 22 1009.9
20260504195640 83 345 8.0 10.0 0.00 0.00 0.00 23 1010.1
20260504194638 83 310 7.0 11.0 0.00 0.00 0.00 24 1010.2
20260504193636 81 28 4.0 7.0 0.00 0.00 0.00 26 1010.2
20260504192630 82 355 7.0 12.0 0.00 0.00 0.00 25 1010.2
20260504191628 81 344 7.0 10.0 0.00 0.00 0.00 25 1010.2
20260504190624 81 9 8.0 11.0 0.00 0.00 0.00 27 1010.4
20260504185627 80 360 8.0 12.0 0.00 0.00 0.00 26 1010.4
20260504184625 80 28 8.0 12.0 0.00 0.00 0.00 24 1010.4
20260504183618 80 31 8.0 11.0 0.00 0.00 0.00 26 1010.5
20260504182638 79 10 6.0 11.0 0.00 0.00 0.00 27 1010.6
20260504181642 78 349 8.0 11.0 0.00 0.00 0.00 27 1010.7
20260504180635 78 1 6.0 7.0 0.00 0.00 0.00 28 1010.6
20260504175648 78 340 7.0 11.0 0.00 0.00 0.00 27 1010.4
20260504174653 79 342 7.0 13.0 0.00 0.00 0.00 26 1010.5
20260504173624 78 5 9.0 13.0 0.00 0.00 0.00 27 1010.6
20260504172622 77 2 8.0 12.0 0.00 0.00 0.00 28 1010.5
20260504171621 77 357 7.0 10.0 0.00 0.00 0.00 29 1010.7
20260504170619 77 357 5.0 9.0 0.00 0.00 0.00 29 1010.7
20260504150633 69 314 2.0 4.0 0.00 0.00 0.00 44 1010.6
20260504140639 63 348 1.0 2.0 0.00 0.00 0.00 52 1010.3
20260504130623 60 264 0.0 1.0 0.00 0.00 0.00 51 1009.7
20260504110639 62 226 2.0 3.0 0.00 0.00 0.00 50 1009.6
20260504081634 69 301 5.0 6.0 0.00 0.00 0.00 33 1009.6
20260504080636 72 291 4.0 6.0 0.00 0.00 0.00 31 1009.7
20260504050632 74 249 0.0 1.0 0.00 0.00 0.00 28 1010.1
20260504045651 74 204 2.0 2.0 0.00 0.00 0.00 28 1010.3
20260504044626 74 228 2.0 3.0 0.00 0.00 0.00 29 1010.1
20260504043706 73 211 2.0 3.0 0.00 0.00 0.00 30 1010.0
20260504042622 73 227 2.0 3.0 0.00 0.00 0.00 32 1010.1
20260504041626 71 230 2.0 3.0 0.00 0.00 0.00 36 1010.0
20260504040640 71 220 1.0 2.0 0.00 0.00 0.00 37 1009.8
20260504035639 73 214 1.0 2.0 0.00 0.00 0.00 38 1010.0
20260504034637 74 239 1.0 2.0 0.00 0.00 0.00 35 1009.8
20260504033633 74 222 0.0 2.0 0.00 0.00 0.00 35 1009.9
20260504032632 75 253 1.0 2.0 0.00 0.00 0.00 34 1009.8
20260504031632 77 242 2.0 2.0 0.00 0.00 0.00 31 1009.9
20260504030703 78 0.0 0.0 0.00 0.00 0.00 26 1009.8
20260504025622 79 0.0 1.0 0.00 0.00 0.00 25 1009.8
20260504024621 80 58 2.0 2.0 0.00 0.00 0.00 24 1009.8
20260504023637 81 109 1.0 2.0 0.00 0.00 0.00 24 1009.8